Location: Unspecified
(42.3650°N, 71.1030°W)
Time: 16:25:00
(UTC+00:00)

Transit 2A - Pass Details

Date: 04 July 2024
Orbit: 591 x 960 km, 66.7° (Epoch: 16 July)

Event Time Altitude Azimuth Distance (km) Brightness Sun altitude
Rises 02:01:01 0° 328° (NNW) 3,579 11.4 -14.2°
Reaches altitude 10° 02:03:31 10° 327° (NNW) 2,661 10.2 -14.5°
Maximum altitude 02:09:49 80° 242° (WSW) 977 6.5 -15.2°
Enters shadow 02:14:06 22° 157° (SSE) 1,950 7.5 -15.7°
